Weather History for Pensacola, FL

Change the Weather History Date:

Saturday, December 29, 2012

  Actual Average Record
Temperature  
Mean Temperature 51 °F 52 °F  
Max Temperature 65 °F 61 °F 81 °F (1974)
Min Temperature 37 °F 43 °F 14 °F (1893)
Degree Days  
Heating Degree Days 14 14  
Month to date heating degree days 196 342  
Since 1 July heating degree days 408 554  
Cooling Degree Days 0 0  
Month to date cooling degree days 24 7  
Year to date cooling degree days 3053 2603  
Moisture  
Dew Point 40 °F    
Average Humidity 68    
Maximum Humidity 90    
Minimum Humidity 46    
Precipitation  
Precipitation 0.00 in 0.14 in 1.92 in (1927)
Month to date precipitation 2.09 4.28  
Year to date precipitation 66.63 65.00  
Snow  
Snow 0.00 in 0.00 in 0.00 in (2001)
Month to date snowfall 0.0 0.0  
Since 1 July snowfall 0.0 0.0  
Snow Depth 0.00 in    
Sea Level Pressure  
Sea Level Pressure 30.09 in    
Wind  
Wind Speed 14 mph (NW)    
Max Wind Speed 23 mph    
Max Gust Speed 30 mph    
Visibility 10 miles    
Events      
T = Trace of Precipitation, MM = Missing Value Source: NWS Daily Summary

Daily Weather History Graph

Daily Weather History Graph

Search for Another Location

Airport:

Trip Planner

Search our weather history database for the weather conditions in past years. The results will help you decide how hot, cold, wet, or windy it might be!

Date:

Astronomy

Dec. 29, 2012 Rise Set
Actual Time 6:45 AM CST 4:57 PM CST
Civil Twilight 6:18 AM CST 5:23 PM CST
Nautical Twilight 5:48 AM CST 5:53 PM CST
Astronomical Twilight 5:19 AM CST 6:23 PM CST
Moon 6:22 PM CST (12/29) 7:24 AM CST (12/29)
Length of Visible Light 11h 05m
Length of Day
10h 12m
Full, 98% of the Moon is Illuminated
Dec 29
Full
Jan 4
Last Quarter
Jan 11
New
Jan 18
First Quarter
Jan 26
Full

Hourly Weather History & Observations

Time (CST) Temp. Windchill Dew Point Humidity Pressure Visibility Wind Dir Wind Speed Gust Speed Precip Events Conditions
12:14 AM 64.4 °F - 62.6 °F 94% 29.78 in 10.0 mi WNW 15.0 mph 20.7 mph N/A   Overcast
12:53 AM 63.0 °F - 59.0 °F 87% 29.82 in 10.0 mi WNW 17.3 mph 23.0 mph N/A   Overcast
1:16 AM 62.6 °F - 57.2 °F 82% 29.83 in 10.0 mi WNW 19.6 mph 25.3 mph N/A   Overcast
1:53 AM 57.0 °F - 54.0 °F 89% 29.86 in 10.0 mi NW 16.1 mph 25.3 mph N/A   Overcast
2:53 AM 55.0 °F - 51.1 °F 86% 29.89 in 10.0 mi NNW 12.7 mph 21.9 mph N/A   Overcast
3:04 AM 55.4 °F - 51.8 °F 88% 29.89 in 10.0 mi NW 20.7 mph 27.6 mph N/A   Overcast
3:21 AM 53.6 °F - 48.2 °F 82% 29.90 in 10.0 mi NW 19.6 mph 26.5 mph N/A   Overcast
3:30 AM 53.6 °F - 46.4 °F 77% 29.90 in 10.0 mi NW 19.6 mph 26.5 mph N/A   Mostly Cloudy
3:53 AM 52.0 °F - 46.0 °F 80% 29.92 in 10.0 mi NW 15.0 mph - N/A   Overcast
4:53 AM 48.9 °F - 42.1 °F 77% 29.97 in 10.0 mi NNW 18.4 mph 29.9 mph N/A   Overcast
5:53 AM 48.0 °F - 41.0 °F 77% 30.02 in 10.0 mi NNW 15.0 mph 25.3 mph N/A   Overcast
6:53 AM 46.9 °F - 39.9 °F 77% 30.06 in 10.0 mi NW 20.7 mph - N/A   Overcast
7:53 AM 45.0 °F 36.4 °F 37.9 °F 76% 30.09 in 10.0 mi NW 23.0 mph 28.8 mph N/A   Overcast
8:38 AM 44.6 °F 36.4 °F 37.4 °F 76% 30.11 in 10.0 mi NNW 20.7 mph 26.5 mph N/A   Overcast
8:53 AM 45.0 °F 37.6 °F 37.9 °F 76% 30.13 in 10.0 mi NNW 17.3 mph 29.9 mph N/A   Overcast
9:36 AM 44.6 °F 37.2 °F 37.4 °F 76% 30.14 in 10.0 mi NNW 17.3 mph 26.5 mph N/A   Overcast
9:53 AM 46.0 °F 39.3 °F 36.0 °F 68% 30.15 in 10.0 mi NNW 16.1 mph 27.6 mph N/A   Overcast
10:53 AM 46.9 °F - 35.1 °F 63% 30.16 in 10.0 mi NNW 20.7 mph 28.8 mph N/A   Overcast
11:53 AM 48.0 °F - 34.0 °F 58% 30.15 in 10.0 mi NW 18.4 mph - N/A   Partly Cloudy
12:53 PM 48.0 °F - 34.0 °F 58% 30.14 in 10.0 mi WNW 16.1 mph 23.0 mph N/A   Clear
1:53 PM 50.0 °F - 33.1 °F 52% 30.14 in 10.0 mi NW 17.3 mph 25.3 mph N/A   Partly Cloudy
2:53 PM 50.0 °F - 33.1 °F 52% 30.16 in 10.0 mi NW 13.8 mph - N/A   Clear
3:53 PM 50.0 °F - 30.9 °F 48% 30.18 in 10.0 mi NW 15.0 mph 21.9 mph N/A   Clear
4:53 PM 46.9 °F - 30.0 °F 52% 30.21 in 10.0 mi NNW 10.4 mph 20.7 mph N/A   Clear
5:53 PM 44.1 °F 39.0 °F 30.9 °F 60% 30.24 in 10.0 mi NNW 9.2 mph - N/A   Clear
6:53 PM 43.0 °F 38.8 °F 32.0 °F 65% 30.27 in 10.0 mi NNW 6.9 mph - N/A   Clear
7:53 PM 41.0 °F 36.4 °F 32.0 °F 70% 30.30 in 10.0 mi NNW 6.9 mph - N/A   Clear
8:53 PM 41.0 °F 35.8 °F 30.9 °F 67% 30.33 in 10.0 mi North 8.1 mph - N/A   Clear
9:53 PM 39.0 °F 32.3 °F 30.0 °F 70% 30.36 in 10.0 mi North 10.4 mph - N/A   Clear
10:53 PM 37.9 °F 30.9 °F 30.0 °F 73% 30.37 in 10.0 mi NNW 10.4 mph - N/A   Clear
11:53 PM 37.0 °F 30.4 °F 28.9 °F 73% 30.37 in 10.0 mi NNW 9.2 mph - N/A   Clear